ペトリュー彗星

185P/Petriew (2007)

English version
Home page
Updated on February 27, 2017

---------------------------------------------------------------------

・ プロフィール

符号 185P/2007 A3
検出日 2007年1月11日
検出光度 16.1等
検出者 F. Fratev (E. Mihaylova), A. Kirchev (Sofia, Bulgaria)

・ 写真集

・ 軌道要素

                    Epoch = 2007 Mar.  1.0 TT
     T = 2007 Feb. 24.5806 TT         Peri. = 181.9215
     e = 0.698129                     Node  = 214.1025  2000.0
     q = 0.937602 AU                  Incl. =  13.9747
       a =  3.105970 AU    n = 0.1800563    P =   5.47 years

・ 星図

・ 光度変化

        m1 = 11.3 + 5 logΔ + 30.0 log r(t - 10)

---------------------------------------------------------------------

軌道要素は Dr. Brian G. Marsden の計算によるもので、 IAUC 8795 に掲載されたものです。
星図は StellaNavigator Ver.2.0 for Windows (アストロアーツ 編著 / アスキー出版局刊) で作成したものです。
光度グラフはComet for Windowsで作成したものです。

---------------------------------------------------------------------

Copyright(C) Seiichi Yoshida (comet@aerith.net). All rights reserved.